EWG981 HEGN-EDDK

Flight info

Callsign EWG981
Flight time 5h 2m
Altitude 34000
Route N0451F340 BOTIX V608 NABED T55 KUNKI P751 TAKRI/N0447F360 P751 METRU DCT TRL DCT TUMBO/N0441F380 DCT OVVER DCT RODON DCT VAKSU DCT SPL DCT PEVAL DCT LAMPO DCT GUNGO DCT SAFFA DCT ARGAX DCT LADOL DCT ABUKA DCT ASKIK DCT DILUG T840 GULKO
Aircraft A320/M-SDE2E3FGIJ1RWXYZ/HB1

Departure

Time 2026-04-21 16:26
Airport Hurghada International Airport (HEGN)

Arrival

Time 2026-04-21 21:29
Airport Cologne Bonn Airport (EDDK)
Time Latitude Longitude Altitude Speed Heading
2026-04-21 15:47 27.18920 33.80221 58 ft 0 kts 75°
2026-04-21 16:16 27.18922 33.80230 52 ft 4 kts 76°
2026-04-21 16:16 27.18915 33.80279 58 ft 10 kts 104°
2026-04-21 16:16 27.18844 33.80334 52 ft 13 kts 166°
2026-04-21 16:16 27.18748 33.80361 54 ft 16 kts 165°
2026-04-21 16:17 27.18649 33.80384 58 ft 13 kts 189°
2026-04-21 16:17 27.18611 33.80315 52 ft 10 kts 255°
2026-04-21 16:17 27.18589 33.80224 55 ft 16 kts 255°
2026-04-21 16:17 27.18565 33.80127 49 ft 14 kts 253°
2026-04-21 16:18 27.18484 33.80086 50 ft 14 kts 169°
2026-04-21 16:18 27.18369 33.80121 51 ft 21 kts 165°
2026-04-21 16:18 27.18238 33.80158 51 ft 18 kts 166°
2026-04-21 16:18 27.18146 33.80188 52 ft 7 kts 166°
2026-04-21 16:19 27.18067 33.80209 53 ft 19 kts 166°
2026-04-21 16:19 27.17926 33.80250 54 ft 22 kts 165°
2026-04-21 16:19 27.17769 33.80297 54 ft 24 kts 166°
2026-04-21 16:19 27.17618 33.80340 54 ft 21 kts 165°
2026-04-21 16:20 27.17485 33.80378 52 ft 16 kts 175°
2026-04-21 16:20 27.17420 33.80304 51 ft 14 kts 256°
2026-04-21 16:20 27.17399 33.80214 49 ft 11 kts 254°
2026-04-21 16:20 27.17375 33.80116 55 ft 18 kts 255°
2026-04-21 16:21 27.17334 33.79942 57 ft 29 kts 255°
2026-04-21 16:21 27.17285 33.79742 84 ft 22 kts 255°
2026-04-21 16:21 27.17258 33.79627 97 ft 9 kts 255°
2026-04-21 16:21 27.17247 33.79579 98 ft 6 kts 255°
2026-04-21 16:22 27.17238 33.79542 101 ft 9 kts 251°
2026-04-21 16:22 27.17147 33.79515 103 ft 15 kts 166°
2026-04-21 16:22 27.17021 33.79553 107 ft 22 kts 165°
2026-04-21 16:22 27.16890 33.79591 107 ft 18 kts 165°
2026-04-21 16:23 27.16776 33.79625 106 ft 16 kts 166°
2026-04-21 16:23 27.16678 33.79654 106 ft 13 kts 165°
2026-04-21 16:23 27.16602 33.79677 107 ft 11 kts 165°
2026-04-21 16:23 27.16506 33.79704 109 ft 18 kts 166°
2026-04-21 16:24 27.16383 33.79741 112 ft 17 kts 164°
2026-04-21 16:24 27.16287 33.79770 115 ft 12 kts 166°
2026-04-21 16:24 27.16189 33.79798 113 ft 18 kts 165°
2026-04-21 16:24 27.16072 33.79834 114 ft 16 kts 164°
2026-04-21 16:25 27.15979 33.79856 117 ft 11 kts 179°
2026-04-21 16:25 27.15934 33.79822 120 ft 8 kts 243°
2026-04-21 16:25 27.15916 33.79743 119 ft 13 kts 258°
2026-04-21 16:25 27.15963 33.79671 118 ft 17 kts 341°
2026-04-21 16:26 27.16275 33.79577 112 ft 79 kts 345°
2026-04-21 16:26 27.16985 33.79367 109 ft 130 kts 345°
2026-04-21 16:26 27.17988 33.79069 259 ft 157 kts 344°
2026-04-21 16:26 27.19031 33.78795 953 ft 154 kts 345°
2026-04-21 16:27 27.19723 33.78618 1431 ft 154 kts 345°
2026-04-21 16:27 27.21127 33.78255 2104 ft 164 kts 344°
2026-04-21 16:27 27.22307 33.77945 2274 ft 185 kts 344°
2026-04-21 16:27 27.23624 33.77597 2458 ft 205 kts 345°
2026-04-21 16:28 27.25092 33.77207 2689 ft 229 kts 345°
2026-04-21 16:28 27.26683 33.76785 3188 ft 239 kts 344°
2026-04-21 16:28 27.28206 33.76024 3842 ft 244 kts 322°
2026-04-21 16:28 27.29283 33.74544 4502 ft 251 kts 295°
2026-04-21 16:29 27.29593 33.73281 4928 ft 257 kts 278°
2026-04-21 16:29 27.29306 33.70599 5847 ft 266 kts 261°
2026-04-21 16:29 27.28899 33.68556 6514 ft 270 kts 261°
2026-04-21 16:29 27.28480 33.66493 7186 ft 271 kts 261°
2026-04-21 16:30 27.28203 33.65120 7639 ft 273 kts 260°
2026-04-21 16:30 27.27781 33.63032 8316 ft 274 kts 259°
2026-04-21 16:30 27.27358 33.60935 9006 ft 276 kts 260°
2026-04-21 16:30 27.26932 33.58821 9702 ft 278 kts 259°
2026-04-21 16:31 27.26502 33.56685 10205 ft 286 kts 259°
2026-04-21 16:31 27.26048 33.54423 10328 ft 307 kts 259°
2026-04-21 16:31 27.25561 33.52003 10455 ft 327 kts 259°
2026-04-21 16:31 27.24879 33.48623 10945 ft 340 kts 259°
2026-04-21 16:32 27.24523 33.46868 11315 ft 342 kts 258°
2026-04-21 16:32 27.24001 33.44289 11882 ft 344 kts 258°
2026-04-21 16:32 27.23468 33.41658 12464 ft 347 kts 258°
2026-04-21 16:32 27.22928 33.39005 13046 ft 350 kts 258°
2026-04-21 16:33 27.22384 33.36333 13612 ft 352 kts 258°
2026-04-21 16:33 27.21919 33.33626 14119 ft 354 kts 265°
2026-04-21 16:33 27.21903 33.30869 14654 ft 354 kts 275°
2026-04-21 16:33 27.22216 33.27222 15347 ft 356 kts 275°
2026-04-21 16:34 27.22373 33.25384 15668 ft 357 kts 275°
2026-04-21 16:34 27.22607 33.22600 16182 ft 359 kts 275°
2026-04-21 16:34 27.22838 33.19801 16705 ft 360 kts 275°
2026-04-21 16:34 27.23070 33.16991 17243 ft 361 kts 275°
2026-04-21 16:35 27.23301 33.14175 17750 ft 363 kts 275°
2026-04-21 16:35 27.23531 33.11345 18232 ft 364 kts 275°
2026-04-21 16:35 27.23833 33.07584 18804 ft 366 kts 275°
2026-04-21 16:35 27.23986 33.05658 19100 ft 366 kts 275°
2026-04-21 16:36 27.24216 33.02811 19559 ft 366 kts 275°
2026-04-21 16:36 27.24444 32.99999 19985 ft 367 kts 275°
2026-04-21 16:36 27.24675 32.97143 20433 ft 367 kts 275°
2026-04-21 16:36 27.24906 32.94284 20858 ft 368 kts 275°
2026-04-21 16:37 27.25137 32.91416 21284 ft 368 kts 275°
2026-04-21 16:37 27.25369 32.88552 21707 ft 369 kts 275°
2026-04-21 16:37 27.25598 32.85679 22120 ft 369 kts 274°
2026-04-21 16:37 27.25824 32.82800 22534 ft 370 kts 274°
2026-04-21 16:38 27.26049 32.79953 22941 ft 371 kts 274°
2026-04-21 16:38 27.26278 32.77066 23346 ft 371 kts 274°
2026-04-21 16:38 27.26507 32.74172 23695 ft 372 kts 274°
2026-04-21 16:38 27.26734 32.71272 24003 ft 373 kts 274°
2026-04-21 16:39 27.26962 32.68366 24307 ft 374 kts 274°
2026-04-21 16:39 27.27190 32.65450 24608 ft 375 kts 274°
2026-04-21 16:39 27.27418 32.62530 24904 ft 376 kts 274°
2026-04-21 16:39 27.27646 32.59600 25196 ft 376 kts 274°
2026-04-21 16:40 27.27870 32.56706 25485 ft 377 kts 274°
2026-04-21 16:40 27.28096 32.53766 25768 ft 378 kts 274°
2026-04-21 16:40 27.28325 32.50821 26055 ft 379 kts 274°
2026-04-21 16:40 27.28554 32.47876 26339 ft 379 kts 274°
2026-04-21 16:41 27.28783 32.44919 26609 ft 380 kts 274°
2026-04-21 16:41 27.29010 32.41955 26879 ft 381 kts 274°
2026-04-21 16:41 27.29237 32.38985 27150 ft 382 kts 274°
2026-04-21 16:41 27.29464 32.36007 27416 ft 383 kts 274°
2026-04-21 16:42 27.29686 32.33059 27644 ft 384 kts 274°
2026-04-21 16:42 27.30152 32.30102 27890 ft 387 kts 283°
2026-04-21 16:42 27.31143 32.27264 28123 ft 393 kts 293°
2026-04-21 16:42 27.32647 32.24662 28348 ft 401 kts 302°
2026-04-21 16:43 27.34367 32.22181 28569 ft 403 kts 302°
2026-04-21 16:43 27.36088 32.19691 28788 ft 404 kts 301°
2026-04-21 16:43 27.37810 32.17186 29001 ft 405 kts 301°
2026-04-21 16:43 27.39533 32.14671 29221 ft 406 kts 301°
2026-04-21 16:44 27.41252 32.12156 29531 ft 405 kts 301°
2026-04-21 16:44 27.42967 32.09646 29868 ft 403 kts 301°
2026-04-21 16:44 27.44651 32.07178 30162 ft 402 kts 301°
2026-04-21 16:44 27.46353 32.04685 30428 ft 401 kts 301°
2026-04-21 16:45 27.48051 32.02200 30709 ft 400 kts 301°
2026-04-21 16:45 27.49742 31.99724 30976 ft 398 kts 301°
2026-04-21 16:45 27.51424 31.97257 31256 ft 396 kts 301°
2026-04-21 16:45 27.53101 31.94797 31516 ft 395 kts 300°
2026-04-21 16:46 27.54771 31.92347 31787 ft 394 kts 300°
2026-04-21 16:46 27.56436 31.89903 31965 ft 393 kts 300°
2026-04-21 16:46 27.58075 31.87496 32009 ft 392 kts 300°
2026-04-21 16:47 27.61387 31.82621 32008 ft 391 kts 300°
2026-04-21 16:47 27.64698 31.77755 32009 ft 391 kts 300°
2026-04-21 16:48 27.68005 31.72880 32014 ft 391 kts 300°
2026-04-21 16:48 27.71284 31.68037 32012 ft 391 kts 300°
2026-04-21 16:49 27.74588 31.63160 32011 ft 391 kts 301°
2026-04-21 16:49 27.77895 31.58283 32017 ft 391 kts 300°
2026-04-21 16:50 27.81197 31.53396 32014 ft 391 kts 300°
2026-04-21 16:50 27.84492 31.48505 32013 ft 391 kts 301°
2026-04-21 16:51 27.87765 31.43647 32013 ft 391 kts 301°
2026-04-21 16:51 27.91057 31.38753 32014 ft 391 kts 301°
2026-04-21 16:52 27.94349 31.33856 32017 ft 391 kts 301°
2026-04-21 16:52 27.97648 31.28962 32005 ft 391 kts 301°
2026-04-21 16:53 28.00921 31.24096 32014 ft 391 kts 301°
2026-04-21 16:53 28.04207 31.19187 32021 ft 391 kts 301°
2026-04-21 16:54 28.07490 31.14273 32018 ft 391 kts 301°
2026-04-21 16:54 28.10765 31.09356 32010 ft 391 kts 301°
2026-04-21 16:55 28.14036 31.04431 32018 ft 391 kts 301°
2026-04-21 16:55 28.17281 30.99537 32013 ft 391 kts 301°
2026-04-21 16:56 28.20546 30.94606 32016 ft 391 kts 301°
2026-04-21 16:56 28.23809 30.89674 32017 ft 391 kts 301°
2026-04-21 16:57 28.27076 30.84741 32017 ft 391 kts 301°
2026-04-21 16:57 28.30315 30.79839 32017 ft 391 kts 301°
2026-04-21 16:58 28.33570 30.74899 32013 ft 391 kts 301°
2026-04-21 16:58 28.36824 30.69952 32016 ft 391 kts 301°
2026-04-21 16:59 28.40080 30.65004 32019 ft 391 kts 301°
2026-04-21 16:59 28.43312 30.60093 32017 ft 391 kts 301°
2026-04-21 17:00 28.46568 30.55145 32019 ft 391 kts 301°
2026-04-21 17:00 28.49271 30.51029 32018 ft 391 kts 301°
2026-04-21 17:01 28.53066 30.45233 32022 ft 391 kts 301°
2026-04-21 17:01 28.56287 30.40302 32022 ft 391 kts 301°
2026-04-21 17:02 28.59535 30.35342 32023 ft 391 kts 301°
2026-04-21 17:02 28.62779 30.30382 32021 ft 391 kts 301°
2026-04-21 17:03 28.65998 30.25444 32027 ft 391 kts 301°
2026-04-21 17:03 28.69237 30.20468 32024 ft 391 kts 301°
2026-04-21 17:04 28.72479 30.15488 32026 ft 392 kts 301°
2026-04-21 17:04 28.75723 30.10501 32028 ft 392 kts 301°
2026-04-21 17:05 28.78936 30.05541 32029 ft 392 kts 301°
2026-04-21 17:05 28.82176 30.00543 32030 ft 392 kts 301°
2026-04-21 17:06 28.85414 29.95543 32030 ft 392 kts 301°
2026-04-21 17:06 28.88658 29.90539 32030 ft 392 kts 301°
2026-04-21 17:07 28.91898 29.85531 32033 ft 392 kts 301°
2026-04-21 17:07 28.95108 29.80546 32034 ft 392 kts 301°
2026-04-21 17:08 28.98337 29.75521 32031 ft 393 kts 301°
2026-04-21 17:08 29.01574 29.70497 32038 ft 393 kts 301°
2026-04-21 17:09 29.06407 29.62984 32036 ft 393 kts 301°
2026-04-21 17:09 29.09638 29.57948 32037 ft 393 kts 301°
2026-04-21 17:10 29.12867 29.52901 32040 ft 393 kts 301°
2026-04-21 17:10 29.16101 29.47854 32042 ft 393 kts 301°
2026-04-21 17:11 29.19309 29.42835 32033 ft 394 kts 301°
2026-04-21 17:11 29.22546 29.37774 32034 ft 394 kts 301°
2026-04-21 17:12 29.25777 29.32712 32049 ft 394 kts 301°
2026-04-21 17:12 29.29007 29.27641 32038 ft 394 kts 301°
2026-04-21 17:13 29.32217 29.22599 32046 ft 394 kts 301°
2026-04-21 17:13 29.35449 29.17521 32035 ft 394 kts 301°
2026-04-21 17:14 29.38677 29.12431 32047 ft 395 kts 301°
2026-04-21 17:14 29.42070 29.07464 32043 ft 401 kts 310°
2026-04-21 17:15 29.46448 29.03458 32049 ft 407 kts 316°
2026-04-21 17:15 29.50960 28.99529 32045 ft 407 kts 316°
2026-04-21 17:16 29.55469 28.95582 32046 ft 408 kts 316°
2026-04-21 17:16 29.59973 28.91627 32043 ft 408 kts 316°
2026-04-21 17:17 29.64482 28.87663 32046 ft 408 kts 316°
2026-04-21 17:17 29.68956 28.83714 32046 ft 408 kts 316°
2026-04-21 17:18 29.73470 28.79738 32047 ft 409 kts 316°
2026-04-21 17:18 29.77993 28.75758 32047 ft 409 kts 316°
2026-04-21 17:19 29.82521 28.71773 32047 ft 410 kts 316°
2026-04-21 17:19 29.87046 28.67781 32050 ft 410 kts 316°
2026-04-21 17:20 29.91544 28.63800 32055 ft 410 kts 316°
2026-04-21 17:20 29.96074 28.59788 32052 ft 411 kts 316°
2026-04-21 17:21 30.00607 28.55769 32053 ft 411 kts 317°
2026-04-21 17:21 30.05146 28.51753 32057 ft 411 kts 317°
2026-04-21 17:22 30.09656 28.47756 32056 ft 411 kts 317°
2026-04-21 17:22 30.14190 28.43719 32059 ft 412 kts 317°
2026-04-21 17:23 30.18726 28.39674 32060 ft 412 kts 317°
2026-04-21 17:23 30.23263 28.35628 32060 ft 412 kts 317°
2026-04-21 17:24 30.27810 28.31578 32067 ft 412 kts 317°
2026-04-21 17:24 30.32352 28.27520 32069 ft 413 kts 317°
2026-04-21 17:25 30.36862 28.23480 32063 ft 413 kts 317°
2026-04-21 17:25 30.41413 28.19415 32072 ft 413 kts 317°
2026-04-21 17:26 30.45968 28.15337 32072 ft 414 kts 317°
2026-04-21 17:26 30.50516 28.11255 32076 ft 414 kts 317°
2026-04-21 17:27 30.55038 28.07192 32020 ft 414 kts 317°
2026-04-21 17:27 30.59632 28.03052 32077 ft 422 kts 317°
2026-04-21 17:28 30.64291 27.98849 32079 ft 425 kts 317°
2026-04-21 17:28 30.68967 27.94643 32079 ft 425 kts 317°
2026-04-21 17:29 30.73641 27.90427 32085 ft 425 kts 317°
2026-04-21 17:29 30.78277 27.86230 32082 ft 425 kts 317°
2026-04-21 17:30 30.82937 27.82001 32084 ft 425 kts 317°
2026-04-21 17:30 30.87596 27.77777 32086 ft 425 kts 317°
2026-04-21 17:31 30.92253 27.73554 32087 ft 424 kts 317°
2026-04-21 17:31 30.96908 27.69323 32084 ft 424 kts 317°
2026-04-21 17:32 31.01561 27.65089 32087 ft 424 kts 317°
2026-04-21 17:32 31.06178 27.60886 32087 ft 424 kts 317°
2026-04-21 17:33 31.10822 27.56650 32088 ft 424 kts 317°
2026-04-21 17:33 31.15500 27.52456 32086 ft 425 kts 320°
2026-04-21 17:34 31.20371 27.48529 32087 ft 426 kts 322°
2026-04-21 17:34 31.25300 27.44695 32085 ft 425 kts 321°
2026-04-21 17:35 31.30161 27.40835 32091 ft 425 kts 321°
2026-04-21 17:35 31.35015 27.36906 32084 ft 424 kts 321°
2026-04-21 17:36 31.39863 27.32962 32082 ft 424 kts 321°
2026-04-21 17:36 31.44717 27.29031 32085 ft 424 kts 321°
2026-04-21 17:37 31.49576 27.25107 32086 ft 424 kts 321°
2026-04-21 17:37 31.54395 27.21208 32083 ft 424 kts 321°
2026-04-21 17:38 31.59248 27.17274 32083 ft 424 kts 321°
2026-04-21 17:38 31.64095 27.13338 32072 ft 424 kts 321°
2026-04-21 17:39 31.68937 27.09393 32086 ft 424 kts 321°
2026-04-21 17:39 31.73771 27.05442 32080 ft 423 kts 321°
2026-04-21 17:40 31.78577 27.01519 32082 ft 423 kts 321°
2026-04-21 17:40 31.83408 26.97568 32071 ft 423 kts 321°
2026-04-21 17:41 31.88239 26.93615 32073 ft 423 kts 321°
2026-04-21 17:41 31.93070 26.89663 32078 ft 423 kts 321°
2026-04-21 17:42 31.97870 26.85733 32077 ft 423 kts 321°
2026-04-21 17:42 32.02697 26.81772 32076 ft 423 kts 321°
2026-04-21 17:43 32.07514 26.77800 32076 ft 423 kts 321°
2026-04-21 17:43 32.12332 26.73824 32074 ft 422 kts 321°
2026-04-21 17:44 32.17151 26.69860 32071 ft 422 kts 321°
2026-04-21 17:44 32.21937 26.65914 32072 ft 422 kts 321°
2026-04-21 17:45 32.26750 26.61932 32070 ft 422 kts 321°
2026-04-21 17:45 32.31555 26.57946 32072 ft 422 kts 321°
2026-04-21 17:46 32.36362 26.53956 32071 ft 422 kts 321°
2026-04-21 17:46 32.41169 26.49969 32071 ft 422 kts 321°
2026-04-21 17:47 32.45943 26.46009 32071 ft 422 kts 321°
2026-04-21 17:47 32.50746 26.42013 32072 ft 422 kts 321°
2026-04-21 17:48 32.55540 26.38018 32071 ft 421 kts 321°
2026-04-21 17:48 32.60335 26.34010 32071 ft 421 kts 321°
2026-04-21 17:49 32.65090 26.30031 32070 ft 421 kts 321°
2026-04-21 17:49 32.69881 26.26023 32067 ft 421 kts 321°
2026-04-21 17:50 32.74670 26.22014 32069 ft 421 kts 321°
2026-04-21 17:50 32.79455 26.18003 32074 ft 421 kts 321°
2026-04-21 17:51 32.84238 26.13987 32068 ft 421 kts 321°
2026-04-21 17:51 32.89013 26.09962 32069 ft 421 kts 321°
2026-04-21 17:52 32.93750 26.05960 32068 ft 420 kts 321°
2026-04-21 17:52 32.98521 26.01932 32068 ft 420 kts 321°
2026-04-21 17:53 33.03291 25.97903 32065 ft 420 kts 321°
2026-04-21 17:53 33.08059 25.93872 32069 ft 420 kts 321°
2026-04-21 17:54 33.12825 25.89830 32065 ft 420 kts 321°
2026-04-21 17:54 33.17557 25.85817 32065 ft 420 kts 321°
2026-04-21 17:55 33.22318 25.81773 32067 ft 420 kts 321°
2026-04-21 17:55 33.27077 25.77721 32065 ft 420 kts 321°
2026-04-21 17:56 33.31838 25.73668 32068 ft 420 kts 321°
2026-04-21 17:56 33.36566 25.69641 32063 ft 420 kts 321°
2026-04-21 17:57 33.41318 25.65577 32063 ft 420 kts 321°
2026-04-21 17:57 33.46071 25.61507 32062 ft 420 kts 321°
2026-04-21 17:58 33.50827 25.57440 32060 ft 420 kts 321°
2026-04-21 17:58 33.55581 25.53371 32060 ft 420 kts 321°
2026-04-21 17:59 33.60298 25.49318 32056 ft 420 kts 321°
2026-04-21 17:59 33.65046 25.45226 32059 ft 420 kts 320°
2026-04-21 18:00 33.69791 25.41135 32058 ft 420 kts 321°
2026-04-21 18:00 33.74539 25.37044 32057 ft 420 kts 320°
2026-04-21 18:01 33.79284 25.32950 32059 ft 420 kts 320°
2026-04-21 18:01 33.83994 25.28874 32057 ft 420 kts 320°
2026-04-21 18:02 33.88737 25.24775 32059 ft 420 kts 320°
2026-04-21 18:02 33.93472 25.20671 32057 ft 420 kts 320°
2026-04-21 18:03 33.98213 25.16552 32053 ft 420 kts 320°
2026-04-21 18:03 34.03167 25.12769 32053 ft 423 kts 326°
2026-04-21 18:04 34.08227 25.09226 32053 ft 423 kts 326°
2026-04-21 18:04 34.13313 25.05651 32052 ft 423 kts 326°
2026-04-21 18:05 34.18397 25.02061 32049 ft 423 kts 325°
2026-04-21 18:05 34.23478 24.98467 32050 ft 423 kts 326°
2026-04-21 18:06 34.28525 24.94897 32046 ft 423 kts 325°
2026-04-21 18:06 34.33608 24.91298 32046 ft 423 kts 325°
2026-04-21 18:07 34.38690 24.87689 32044 ft 423 kts 325°
2026-04-21 18:07 34.43735 24.84097 32045 ft 423 kts 325°
2026-04-21 18:08 34.48814 24.80484 32045 ft 423 kts 325°
2026-04-21 18:08 34.53892 24.76870 32040 ft 423 kts 325°
2026-04-21 18:09 34.58971 24.73245 32040 ft 423 kts 325°
2026-04-21 18:09 34.64041 24.69612 32039 ft 423 kts 325°
2026-04-21 18:10 34.69080 24.66014 32040 ft 423 kts 325°
2026-04-21 18:10 34.74150 24.62392 32028 ft 423 kts 325°
2026-04-21 18:11 34.79211 24.58750 32041 ft 423 kts 325°
2026-04-21 18:11 34.84234 24.55122 32036 ft 423 kts 325°
2026-04-21 18:12 34.89293 24.51476 32043 ft 423 kts 325°
2026-04-21 18:12 34.94359 24.47832 32035 ft 423 kts 325°
2026-04-21 18:13 34.99423 24.44181 32035 ft 423 kts 325°
2026-04-21 18:13 35.04448 24.40551 32034 ft 423 kts 325°
2026-04-21 18:14 35.12036 24.35056 32035 ft 423 kts 325°
2026-04-21 18:15 35.17092 24.31387 32028 ft 423 kts 325°
2026-04-21 18:15 35.22113 24.27730 32026 ft 423 kts 325°
2026-04-21 18:16 35.27166 24.24038 32019 ft 423 kts 325°
2026-04-21 18:16 35.32230 24.20346 32012 ft 424 kts 325°
2026-04-21 18:17 35.37297 24.16657 32008 ft 424 kts 325°
2026-04-21 18:17 35.42361 24.12962 32001 ft 424 kts 325°
2026-04-21 18:18 35.47393 24.09278 32003 ft 424 kts 325°
2026-04-21 18:18 35.52460 24.05562 32003 ft 424 kts 325°
2026-04-21 18:19 35.57524 24.01842 32004 ft 424 kts 325°
2026-04-21 18:19 35.62592 23.98111 32008 ft 425 kts 325°
2026-04-21 18:20 35.67625 23.94403 32012 ft 425 kts 325°
2026-04-21 18:20 35.72690 23.90667 32013 ft 425 kts 325°
2026-04-21 18:21 35.77756 23.86924 32016 ft 425 kts 325°
2026-04-21 18:21 35.82789 23.83198 32012 ft 425 kts 325°
2026-04-21 18:22 35.87853 23.79449 32011 ft 424 kts 325°
2026-04-21 18:22 35.92911 23.75695 32011 ft 424 kts 325°
2026-04-21 18:23 35.97968 23.71933 32011 ft 424 kts 325°
2026-04-21 18:23 36.03021 23.68166 32003 ft 424 kts 325°
2026-04-21 18:24 36.08043 23.64429 31994 ft 424 kts 325°
2026-04-21 18:24 36.13094 23.60660 32003 ft 424 kts 325°
2026-04-21 18:25 36.18141 23.56886 31989 ft 424 kts 325°
2026-04-21 18:25 36.23158 23.53133 31986 ft 424 kts 325°
2026-04-21 18:26 36.28205 23.49349 31987 ft 424 kts 325°
2026-04-21 18:26 36.33256 23.45562 31984 ft 424 kts 325°
2026-04-21 18:27 36.38302 23.41760 31984 ft 424 kts 325°
2026-04-21 18:27 36.43316 23.37978 31972 ft 424 kts 325°
2026-04-21 18:28 36.48363 23.34168 31976 ft 425 kts 325°
2026-04-21 18:28 36.53410 23.30357 31970 ft 425 kts 325°
2026-04-21 18:29 36.58455 23.26540 31970 ft 424 kts 325°
2026-04-21 18:29 36.63466 23.22742 31970 ft 424 kts 325°
2026-04-21 18:30 36.68507 23.18907 31970 ft 424 kts 325°
2026-04-21 18:30 36.73547 23.15075 31967 ft 424 kts 325°
2026-04-21 18:31 36.78591 23.11242 31969 ft 424 kts 325°
2026-04-21 18:31 36.83596 23.07431 31967 ft 424 kts 325°
2026-04-21 18:32 36.88623 23.03581 31965 ft 424 kts 324°
2026-04-21 18:32 36.93650 22.99726 31967 ft 424 kts 324°
2026-04-21 18:33 36.98680 22.95881 31968 ft 424 kts 324°
2026-04-21 18:33 37.03672 22.92041 31974 ft 424 kts 324°
2026-04-21 18:34 37.08698 22.88179 31972 ft 424 kts 324°
2026-04-21 18:34 37.13726 22.84309 31974 ft 424 kts 324°
2026-04-21 18:35 37.17900 22.81087 31980 ft 424 kts 324°
2026-04-21 18:35 37.23768 22.76553 31976 ft 424 kts 324°
2026-04-21 18:36 37.28750 22.72697 31981 ft 423 kts 324°
2026-04-21 18:36 37.33761 22.68811 31983 ft 423 kts 324°
2026-04-21 18:37 37.38773 22.64922 31986 ft 423 kts 324°
2026-04-21 18:37 37.43780 22.61033 31991 ft 423 kts 324°
2026-04-21 18:38 37.48753 22.57159 31995 ft 423 kts 324°
2026-04-21 18:38 37.53757 22.53255 31998 ft 423 kts 324°
2026-04-21 18:39 37.58763 22.49350 32001 ft 423 kts 324°
2026-04-21 18:39 37.63729 22.45467 32006 ft 422 kts 324°
2026-04-21 18:40 37.68720 22.41553 32005 ft 423 kts 324°
2026-04-21 18:40 37.72871 22.38296 32012 ft 422 kts 324°
2026-04-21 18:41 37.78702 22.33718 32009 ft 422 kts 324°
2026-04-21 18:41 37.83652 22.29819 32012 ft 422 kts 324°
2026-04-21 18:42 37.88632 22.25890 32013 ft 422 kts 324°
2026-04-21 18:42 37.93609 22.21955 32015 ft 421 kts 324°
2026-04-21 18:43 37.98583 22.18018 32014 ft 421 kts 324°
2026-04-21 18:43 38.03543 22.14086 32014 ft 420 kts 324°
2026-04-21 18:44 38.08472 22.10175 32012 ft 420 kts 324°
2026-04-21 18:44 38.13426 22.06234 32013 ft 420 kts 324°
2026-04-21 18:45 38.18376 22.02292 32014 ft 420 kts 324°
2026-04-21 18:45 38.23319 21.98349 32009 ft 419 kts 324°
2026-04-21 18:46 38.28262 21.94408 32010 ft 419 kts 324°
2026-04-21 18:46 38.33158 21.90489 32014 ft 418 kts 324°
2026-04-21 18:47 38.38087 21.86539 32014 ft 418 kts 324°
2026-04-21 18:47 38.43003 21.82590 32015 ft 417 kts 324°
2026-04-21 18:48 38.47872 21.78675 32016 ft 416 kts 324°
2026-04-21 18:48 38.52773 21.74726 32017 ft 417 kts 324°
2026-04-21 18:49 38.57674 21.70774 32016 ft 416 kts 324°
2026-04-21 18:49 38.61742 21.67486 32019 ft 416 kts 324°
2026-04-21 18:50 38.67460 21.62854 32020 ft 416 kts 324°
2026-04-21 18:50 38.72346 21.58884 32019 ft 416 kts 324°
2026-04-21 18:51 38.77196 21.54942 32018 ft 416 kts 324°
2026-04-21 18:51 38.82077 21.50974 32017 ft 416 kts 324°
2026-04-21 18:52 38.86955 21.47001 32017 ft 415 kts 324°
2026-04-21 18:52 38.91827 21.43031 32017 ft 415 kts 324°
2026-04-21 18:53 38.96660 21.39082 32018 ft 414 kts 324°
2026-04-21 18:53 39.01518 21.35096 32017 ft 414 kts 324°
2026-04-21 18:54 39.06374 21.31110 32017 ft 414 kts 324°
2026-04-21 18:54 39.11201 21.27146 32017 ft 414 kts 324°
2026-04-21 18:55 39.15271 21.23804 32026 ft 414 kts 324°
2026-04-21 18:55 39.20909 21.19161 32031 ft 414 kts 324°
2026-04-21 18:56 39.25758 21.15156 32024 ft 414 kts 324°
2026-04-21 18:56 39.30576 21.11170 32023 ft 414 kts 324°
2026-04-21 18:57 39.35429 21.07145 32024 ft 415 kts 324°
2026-04-21 18:57 39.40279 21.03110 32024 ft 415 kts 324°
2026-04-21 18:58 39.45134 20.99078 32014 ft 415 kts 324°
2026-04-21 18:58 39.49984 20.95036 32013 ft 414 kts 324°
2026-04-21 18:59 39.54791 20.91013 32015 ft 414 kts 324°
2026-04-21 18:59 39.59640 20.86973 32004 ft 414 kts 324°
2026-04-21 19:00 39.64480 20.82924 32001 ft 414 kts 323°
2026-04-21 19:00 39.69317 20.78872 32008 ft 414 kts 324°
2026-04-21 19:01 39.74118 20.74844 32002 ft 413 kts 323°
2026-04-21 19:01 39.78948 20.70786 32003 ft 413 kts 324°
2026-04-21 19:02 39.83774 20.66740 32008 ft 412 kts 323°
2026-04-21 19:02 39.88588 20.62687 32010 ft 412 kts 323°
2026-04-21 19:03 39.93357 20.58649 32012 ft 412 kts 323°
2026-04-21 19:03 39.98152 20.54576 32010 ft 411 kts 323°
2026-04-21 19:04 40.02945 20.50517 32008 ft 411 kts 323°
2026-04-21 19:04 40.07719 20.46430 32004 ft 410 kts 322°
2026-04-21 19:05 40.12300 20.42108 32004 ft 408 kts 320°
2026-04-21 19:05 40.16826 20.37630 31998 ft 408 kts 319°
2026-04-21 19:06 40.21365 20.33179 31995 ft 407 kts 320°
2026-04-21 19:06 40.25912 20.28771 31993 ft 407 kts 320°
2026-04-21 19:07 40.30438 20.24405 31987 ft 407 kts 320°
2026-04-21 19:07 40.34983 20.19996 31982 ft 406 kts 320°
2026-04-21 19:08 40.39518 20.15573 31981 ft 406 kts 320°
2026-04-21 19:08 40.44054 20.11148 31968 ft 406 kts 320°
2026-04-21 19:09 40.48562 20.06753 31970 ft 406 kts 320°
2026-04-21 19:09 40.53088 20.02331 31970 ft 405 kts 320°
2026-04-21 19:10 40.57612 19.97914 31965 ft 404 kts 320°
2026-04-21 19:10 40.62123 19.93504 31961 ft 404 kts 320°
2026-04-21 19:11 40.66594 19.89115 31959 ft 403 kts 320°
2026-04-21 19:11 40.71094 19.84691 31956 ft 403 kts 320°
2026-04-21 19:12 40.74829 19.81016 31958 ft 403 kts 320°
2026-04-21 19:12 40.80044 19.75867 31958 ft 403 kts 320°
2026-04-21 19:13 40.84523 19.71434 31956 ft 402 kts 320°
2026-04-21 19:13 40.89003 19.66995 31957 ft 402 kts 320°
2026-04-21 19:14 40.93480 19.62546 31955 ft 403 kts 320°
2026-04-21 19:14 40.97940 19.58127 31955 ft 403 kts 320°
2026-04-21 19:15 41.02429 19.53659 31954 ft 404 kts 319°
2026-04-21 19:15 41.06894 19.49202 31955 ft 405 kts 319°
2026-04-21 19:16 41.10638 19.45467 31957 ft 405 kts 319°
2026-04-21 19:16 41.15872 19.40230 31957 ft 406 kts 319°
2026-04-21 19:17 41.22635 19.33442 31954 ft 406 kts 319°
2026-04-21 19:17 41.26382 19.29674 31955 ft 407 kts 319°
2026-04-21 19:18 41.30892 19.25126 31959 ft 407 kts 319°
2026-04-21 19:18 41.36137 19.19837 31959 ft 407 kts 319°
2026-04-21 19:19 41.39921 19.16020 31957 ft 407 kts 319°
2026-04-21 19:19 41.44398 19.11482 31962 ft 407 kts 319°
2026-04-21 19:20 41.48898 19.06907 31969 ft 407 kts 319°
2026-04-21 19:20 41.53388 19.02314 31971 ft 406 kts 319°
2026-04-21 19:21 41.57871 18.97718 31971 ft 406 kts 319°
2026-04-21 19:21 41.62318 18.93154 31972 ft 406 kts 319°
2026-04-21 19:22 41.66793 18.88566 31972 ft 405 kts 319°
2026-04-21 19:22 41.71257 18.83974 31969 ft 405 kts 318°
2026-04-21 19:23 41.75708 18.79375 31971 ft 404 kts 318°
2026-04-21 19:23 41.80124 18.74803 31969 ft 404 kts 318°
2026-04-21 19:24 41.84568 18.70202 31970 ft 403 kts 318°
2026-04-21 19:24 41.89005 18.65601 31972 ft 403 kts 318°
2026-04-21 19:25 41.93446 18.61000 31970 ft 403 kts 318°
2026-04-21 19:25 41.97847 18.56428 31969 ft 403 kts 318°
2026-04-21 19:26 42.02151 18.51650 31969 ft 398 kts 310°
2026-04-21 19:26 42.05889 18.46165 31966 ft 398 kts 309°
2026-04-21 19:27 42.09628 18.40671 31967 ft 398 kts 309°
2026-04-21 19:27 42.13367 18.35179 31965 ft 398 kts 309°
2026-04-21 19:28 42.17076 18.29721 31962 ft 398 kts 309°
2026-04-21 19:28 42.20806 18.24214 31962 ft 397 kts 309°
2026-04-21 19:29 42.24531 18.18701 31962 ft 397 kts 309°
2026-04-21 19:29 42.28254 18.13187 31966 ft 397 kts 309°
2026-04-21 19:30 42.31949 18.07706 31966 ft 397 kts 309°
2026-04-21 19:30 42.35658 18.02180 31973 ft 397 kts 309°
2026-04-21 19:31 42.39369 17.96651 31974 ft 397 kts 309°
2026-04-21 19:31 42.43074 17.91120 31977 ft 396 kts 309°
2026-04-21 19:32 42.46744 17.85624 31969 ft 396 kts 309°
2026-04-21 19:32 42.50438 17.80084 31974 ft 396 kts 309°
2026-04-21 19:33 42.54132 17.74545 31967 ft 396 kts 309°
2026-04-21 19:33 42.57820 17.69005 31972 ft 395 kts 308°
2026-04-21 19:34 42.61468 17.63496 31977 ft 395 kts 308°
2026-04-21 19:34 42.65131 17.57951 31971 ft 394 kts 308°
2026-04-21 19:35 42.70619 17.49642 31979 ft 394 kts 308°
2026-04-21 19:36 42.74277 17.44104 31979 ft 393 kts 308°
2026-04-21 19:36 42.77900 17.38597 31980 ft 393 kts 308°
2026-04-21 19:37 42.81536 17.33051 31980 ft 392 kts 308°
2026-04-21 19:37 42.85166 17.27507 31980 ft 392 kts 308°
2026-04-21 19:38 42.88797 17.21966 31982 ft 392 kts 308°
2026-04-21 19:38 42.92397 17.16462 31980 ft 391 kts 308°
2026-04-21 19:39 42.96012 17.10908 31982 ft 391 kts 308°
2026-04-21 19:39 42.99617 17.05358 31984 ft 390 kts 308°
2026-04-21 19:40 43.03215 16.99809 31985 ft 390 kts 308°
2026-04-21 19:40 43.06783 16.94295 31982 ft 390 kts 308°
2026-04-21 19:41 43.10371 16.88748 31981 ft 389 kts 308°
2026-04-21 19:41 43.13958 16.83194 31982 ft 389 kts 308°
2026-04-21 19:42 43.17538 16.77636 31984 ft 389 kts 308°
2026-04-21 19:42 43.21086 16.72110 31982 ft 389 kts 308°
2026-04-21 19:43 43.24653 16.66544 31978 ft 388 kts 308°
2026-04-21 19:43 43.28219 16.60984 31982 ft 388 kts 308°
2026-04-21 19:44 43.31779 16.55414 31987 ft 388 kts 308°
2026-04-21 19:44 43.35310 16.49879 31989 ft 388 kts 308°
2026-04-21 19:45 43.38862 16.44300 31992 ft 387 kts 308°
2026-04-21 19:45 43.42405 16.38715 32000 ft 387 kts 308°
2026-04-21 19:46 43.45947 16.33124 32004 ft 387 kts 308°
2026-04-21 19:46 43.49456 16.27570 32007 ft 387 kts 307°
2026-04-21 19:47 43.52989 16.21978 32002 ft 387 kts 308°
2026-04-21 19:47 43.56528 16.16376 32002 ft 387 kts 307°
2026-04-21 19:48 43.60057 16.10780 32001 ft 386 kts 307°
2026-04-21 19:48 43.63551 16.05213 31986 ft 386 kts 307°
2026-04-21 19:49 43.67063 15.99604 31990 ft 386 kts 307°
2026-04-21 19:49 43.70568 15.93994 31979 ft 385 kts 307°
2026-04-21 19:50 43.74073 15.88391 31977 ft 385 kts 307°
2026-04-21 19:50 43.77546 15.82822 31981 ft 385 kts 307°
2026-04-21 19:51 43.81033 15.77210 31984 ft 384 kts 307°
2026-04-21 19:51 43.84516 15.71602 31990 ft 384 kts 307°
2026-04-21 19:52 43.87996 15.65993 31995 ft 384 kts 307°
2026-04-21 19:52 43.91443 15.60416 32004 ft 383 kts 307°
2026-04-21 19:53 43.94905 15.54803 32011 ft 383 kts 307°
2026-04-21 19:53 43.98367 15.49185 32020 ft 383 kts 307°
2026-04-21 19:54 44.01822 15.43557 32027 ft 383 kts 307°
2026-04-21 19:54 44.05275 15.37931 32030 ft 383 kts 307°
2026-04-21 19:55 44.08702 15.32340 32029 ft 382 kts 307°
2026-04-21 19:55 44.12149 15.26699 32031 ft 382 kts 307°
2026-04-21 19:56 44.15590 15.21057 32027 ft 382 kts 307°
2026-04-21 19:56 44.19027 15.15404 32024 ft 382 kts 307°
2026-04-21 19:57 44.22433 15.09789 32023 ft 382 kts 307°
2026-04-21 19:57 44.25864 15.04133 32017 ft 382 kts 307°
2026-04-21 19:58 44.29287 14.98468 32017 ft 382 kts 307°
2026-04-21 19:58 44.32707 14.92804 32017 ft 381 kts 307°
2026-04-21 19:59 44.36101 14.87185 32016 ft 381 kts 307°
2026-04-21 19:59 44.39510 14.81519 32016 ft 381 kts 307°
2026-04-21 20:00 44.42912 14.75854 32016 ft 380 kts 307°
2026-04-21 20:00 44.46311 14.70185 32018 ft 380 kts 307°
2026-04-21 20:01 44.49672 14.64553 32021 ft 379 kts 307°
2026-04-21 20:01 44.53052 14.58886 32019 ft 379 kts 307°
2026-04-21 20:02 44.56427 14.53221 32021 ft 378 kts 306°
2026-04-21 20:02 44.59789 14.47560 32023 ft 378 kts 306°
2026-04-21 20:03 44.63128 14.41936 32025 ft 377 kts 306°
2026-04-21 20:03 44.66487 14.36270 32033 ft 378 kts 306°
2026-04-21 20:04 44.69571 14.31056 32030 ft 377 kts 306°
2026-04-21 20:04 44.72917 14.25373 32037 ft 377 kts 306°
2026-04-21 20:05 44.76233 14.19730 32045 ft 377 kts 306°
2026-04-21 20:05 44.79573 14.14050 32052 ft 377 kts 306°
2026-04-21 20:06 44.82906 14.08360 32055 ft 376 kts 306°
2026-04-21 20:06 44.86234 14.02673 32059 ft 376 kts 306°
2026-04-21 20:07 44.89556 13.96986 32057 ft 376 kts 306°
2026-04-21 20:07 44.92854 13.91335 32059 ft 375 kts 306°
2026-04-21 20:08 44.96163 13.85643 32058 ft 375 kts 306°
2026-04-21 20:08 44.99467 13.79948 32056 ft 375 kts 306°
2026-04-21 20:09 45.02761 13.74249 32050 ft 374 kts 306°
2026-04-21 20:09 45.06032 13.68596 32046 ft 374 kts 306°
2026-04-21 20:10 45.09324 13.62895 32045 ft 374 kts 306°
2026-04-21 20:10 45.12608 13.57182 32039 ft 374 kts 306°
2026-04-21 20:11 45.15896 13.51466 32047 ft 374 kts 306°
2026-04-21 20:11 45.19183 13.45741 32053 ft 374 kts 306°
2026-04-21 20:12 45.22444 13.40044 32055 ft 375 kts 306°
2026-04-21 20:12 45.25723 13.34301 32058 ft 375 kts 306°
2026-04-21 20:13 45.28998 13.28544 32058 ft 375 kts 306°
2026-04-21 20:13 45.32248 13.22766 32056 ft 374 kts 305°
2026-04-21 20:14 45.35350 13.16901 32057 ft 374 kts 304°
2026-04-21 20:14 45.38428 13.10949 32053 ft 374 kts 304°
2026-04-21 20:15 45.41520 13.05006 32060 ft 373 kts 304°
2026-04-21 20:15 45.44618 12.99072 32061 ft 373 kts 304°
2026-04-21 20:16 45.47693 12.93174 32063 ft 373 kts 304°
2026-04-21 20:16 45.50793 12.87228 32067 ft 374 kts 304°
2026-04-21 20:17 45.53888 12.81278 32070 ft 374 kts 304°
2026-04-21 20:17 45.56960 12.75345 32075 ft 374 kts 304°
2026-04-21 20:18 45.59522 12.70383 32079 ft 374 kts 304°
2026-04-21 20:18 45.63101 12.63438 32076 ft 374 kts 304°
2026-04-21 20:19 45.66188 12.57451 32080 ft 374 kts 304°
2026-04-21 20:19 45.69268 12.51463 32081 ft 374 kts 304°
2026-04-21 20:20 45.72329 12.45499 32077 ft 374 kts 304°
2026-04-21 20:20 45.75406 12.39485 32079 ft 374 kts 304°
2026-04-21 20:21 45.78482 12.33461 32079 ft 375 kts 304°
2026-04-21 20:21 45.81556 12.27428 32080 ft 375 kts 304°
2026-04-21 20:22 45.84071 12.22490 32074 ft 376 kts 304°
2026-04-21 20:22 45.88074 12.14608 32079 ft 375 kts 304°
2026-04-21 20:23 45.91078 12.08671 32074 ft 376 kts 304°
2026-04-21 20:23 45.94144 12.02589 32075 ft 377 kts 304°
2026-04-21 20:24 45.96669 11.97607 32072 ft 377 kts 304°
2026-04-21 20:24 45.99713 11.91547 32069 ft 376 kts 304°
2026-04-21 20:25 46.02772 11.85431 32066 ft 376 kts 304°
2026-04-21 20:25 46.05834 11.79329 32068 ft 376 kts 304°
2026-04-21 20:26 46.08898 11.73212 32067 ft 377 kts 304°
2026-04-21 20:26 46.11938 11.67113 32063 ft 377 kts 304°
2026-04-21 20:27 46.14996 11.60959 32064 ft 377 kts 304°
2026-04-21 20:27 46.18053 11.54806 32059 ft 378 kts 304°
2026-04-21 20:28 46.21118 11.48631 32057 ft 378 kts 304°
2026-04-21 20:28 46.24179 11.42445 32068 ft 379 kts 304°
2026-04-21 20:29 46.27242 11.36234 32074 ft 379 kts 304°
2026-04-21 20:29 46.30297 11.30012 32072 ft 380 kts 304°
2026-04-21 20:30 46.33333 11.23810 32081 ft 380 kts 304°
2026-04-21 20:30 46.36396 11.17568 32086 ft 381 kts 304°
2026-04-21 20:31 46.39217 11.11091 32082 ft 380 kts 299°
2026-04-21 20:31 46.41753 11.04368 32083 ft 380 kts 298°
2026-04-21 20:32 46.44234 10.97650 32073 ft 380 kts 298°
2026-04-21 20:32 46.46735 10.90871 32066 ft 382 kts 298°
2026-04-21 20:33 46.49256 10.84086 32058 ft 383 kts 298°
2026-04-21 20:33 46.51793 10.77291 32058 ft 383 kts 298°
2026-04-21 20:34 46.54329 10.70477 32051 ft 383 kts 298°
2026-04-21 20:34 46.56833 10.63689 32059 ft 384 kts 298°
2026-04-21 20:35 46.59351 10.56850 32061 ft 384 kts 298°
2026-04-21 20:35 46.61861 10.50019 32064 ft 383 kts 298°
2026-04-21 20:36 46.64366 10.43178 32067 ft 382 kts 298°
2026-04-21 20:36 46.66848 10.36398 32074 ft 382 kts 298°
2026-04-21 20:37 46.69342 10.29560 32075 ft 382 kts 298°
2026-04-21 20:37 46.71833 10.22728 32073 ft 382 kts 298°
2026-04-21 20:38 46.74321 10.15873 32090 ft 383 kts 298°
2026-04-21 20:38 46.76803 10.09008 32085 ft 383 kts 298°
2026-04-21 20:39 46.79266 10.02183 32095 ft 383 kts 298°
2026-04-21 20:39 46.81750 9.95298 32103 ft 383 kts 298°
2026-04-21 20:40 46.84228 9.88401 32111 ft 383 kts 298°
2026-04-21 20:40 46.86698 9.81506 32118 ft 383 kts 298°
2026-04-21 20:41 46.89143 9.74641 32123 ft 383 kts 298°
2026-04-21 20:41 46.91616 9.67734 32117 ft 383 kts 301°
2026-04-21 20:42 46.93223 9.64657 32124 ft 384 kts 315°
2026-04-21 20:42 46.95420 9.62402 32124 ft 391 kts 330°
2026-04-21 20:42 47.00467 9.59588 32126 ft 395 kts 335°
2026-04-21 20:43 47.05614 9.56833 32130 ft 397 kts 334°
2026-04-21 20:43 47.10807 9.54024 32127 ft 398 kts 335°
2026-04-21 20:44 47.15992 9.51216 32126 ft 399 kts 335°
2026-04-21 20:44 47.21203 9.48379 32129 ft 400 kts 335°
2026-04-21 20:45 47.26393 9.45552 32134 ft 401 kts 335°
2026-04-21 20:45 47.31636 9.42694 32134 ft 402 kts 335°
2026-04-21 20:46 47.36889 9.39816 32134 ft 403 kts 335°
2026-04-21 20:46 47.37778 9.39329 32137 ft 403 kts 335°
2026-04-21 20:47 47.42731 9.36593 32135 ft 404 kts 335°
2026-04-21 20:47 47.48004 9.33697 32137 ft 405 kts 335°
2026-04-21 20:48 47.53283 9.30803 32140 ft 405 kts 335°
2026-04-21 20:48 47.58650 9.28199 32164 ft 410 kts 343°
2026-04-21 20:49 47.64251 9.26452 32157 ft 412 kts 343°
2026-04-21 20:49 47.69834 9.24727 32167 ft 413 kts 344°
2026-04-21 20:50 47.75472 9.22983 32159 ft 414 kts 344°
2026-04-21 20:50 47.81121 9.21235 32162 ft 415 kts 344°
2026-04-21 20:51 47.86784 9.19467 32163 ft 416 kts 344°
2026-04-21 20:51 47.92412 9.17704 32170 ft 416 kts 344°
2026-04-21 20:52 47.98091 9.15929 32169 ft 417 kts 344°
2026-04-21 20:52 48.03772 9.14145 32170 ft 418 kts 345°
2026-04-21 20:53 48.09462 9.12353 32179 ft 418 kts 345°
2026-04-21 20:53 48.15124 9.10558 32182 ft 419 kts 345°
2026-04-21 20:54 48.20835 9.08751 32182 ft 420 kts 345°
2026-04-21 20:54 48.26551 9.06942 32190 ft 420 kts 345°
2026-04-21 20:55 48.32279 9.05123 32191 ft 421 kts 345°
2026-04-21 20:55 48.37975 9.03311 32190 ft 422 kts 345°
2026-04-21 20:56 48.43723 9.01475 32192 ft 423 kts 345°
2026-04-21 20:56 48.49467 8.99503 32191 ft 423 kts 344°
2026-04-21 20:57 48.55199 8.97430 32195 ft 424 kts 344°
2026-04-21 20:57 48.60896 8.95356 32192 ft 424 kts 344°
2026-04-21 20:58 48.66651 8.93299 32195 ft 425 kts 345°
2026-04-21 20:58 48.72412 8.91251 32195 ft 426 kts 345°
2026-04-21 20:59 48.78185 8.89179 32198 ft 426 kts 345°
2026-04-21 20:59 48.83922 8.87116 32198 ft 427 kts 345°
2026-04-21 21:00 48.89710 8.85031 32200 ft 428 kts 345°
2026-04-21 21:00 48.95497 8.82900 32208 ft 428 kts 345°
2026-04-21 21:01 49.01299 8.80759 32208 ft 429 kts 345°
2026-04-21 21:01 49.07065 8.78661 32208 ft 430 kts 345°
2026-04-21 21:02 49.12888 8.76555 32209 ft 430 kts 346°
2026-04-21 21:02 49.18711 8.74430 32219 ft 431 kts 346°
2026-04-21 21:03 49.24544 8.72303 32223 ft 431 kts 346°
2026-04-21 21:03 49.30383 8.70158 32232 ft 432 kts 346°
2026-04-21 21:04 49.36186 8.68006 32237 ft 433 kts 346°
2026-04-21 21:04 49.42042 8.65863 32247 ft 433 kts 346°
2026-04-21 21:05 49.47917 8.63701 32248 ft 434 kts 346°
2026-04-21 21:05 49.53788 8.61518 32247 ft 434 kts 346°
2026-04-21 21:06 49.59628 8.59339 32244 ft 435 kts 347°
2026-04-21 21:06 49.65512 8.57152 32245 ft 435 kts 347°
2026-04-21 21:07 49.71400 8.54952 32244 ft 436 kts 347°
2026-04-21 21:07 49.77259 8.52757 32254 ft 436 kts 347°
2026-04-21 21:08 49.83164 8.50545 32261 ft 437 kts 347°
2026-04-21 21:08 49.89074 8.48324 32268 ft 437 kts 347°
2026-04-21 21:09 49.94993 8.46091 32272 ft 438 kts 348°
2026-04-21 21:09 49.97950 8.44972 31972 ft 437 kts 348°
2026-04-21 21:09 50.00891 8.43858 31436 ft 433 kts 348°
2026-04-21 21:10 50.03766 8.42763 30860 ft 430 kts 348°
2026-04-21 21:10 50.06584 8.41191 30233 ft 431 kts 339°
2026-04-21 21:10 50.09338 8.39340 29501 ft 433 kts 340°
2026-04-21 21:10 50.12107 8.37477 28783 ft 433 kts 340°
2026-04-21 21:11 50.14869 8.35607 28082 ft 431 kts 339°
2026-04-21 21:11 50.17476 8.33346 27644 ft 432 kts 326°
2026-04-21 21:11 50.19820 8.30398 27376 ft 433 kts 324°
2026-04-21 21:11 50.22147 8.27414 27107 ft 432 kts 323°
2026-04-21 21:12 50.24454 8.24429 26652 ft 430 kts 323°
2026-04-21 21:12 50.26743 8.21446 26147 ft 427 kts 323°
2026-04-21 21:12 50.28985 8.18516 25666 ft 424 kts 323°
2026-04-21 21:12 50.31235 8.15569 25173 ft 421 kts 323°
2026-04-21 21:13 50.33476 8.12627 24695 ft 418 kts 323°
2026-04-21 21:13 50.35698 8.09714 24211 ft 415 kts 323°
2026-04-21 21:13 50.37907 8.06822 23697 ft 413 kts 323°
2026-04-21 21:13 50.40095 8.03948 23307 ft 409 kts 323°
2026-04-21 21:14 50.42278 8.01074 22673 ft 411 kts 323°
2026-04-21 21:14 50.44453 7.98213 22179 ft 405 kts 323°
2026-04-21 21:14 50.46600 7.95387 21683 ft 400 kts 323°
2026-04-21 21:14 50.48724 7.92594 21182 ft 397 kts 323°
2026-04-21 21:15 50.50801 7.89860 20687 ft 393 kts 323°
2026-04-21 21:15 50.52890 7.87104 20201 ft 390 kts 323°
2026-04-21 21:15 50.54960 7.84369 19705 ft 387 kts 323°
2026-04-21 21:15 50.57013 7.81656 19219 ft 384 kts 323°
2026-04-21 21:16 50.59051 7.78954 18739 ft 382 kts 323°
2026-04-21 21:16 50.61076 7.76265 18223 ft 380 kts 323°
2026-04-21 21:16 50.63085 7.73594 17747 ft 376 kts 323°
2026-04-21 21:16 50.65075 7.70949 17289 ft 373 kts 323°
2026-04-21 21:17 50.67024 7.68353 16834 ft 371 kts 323°
2026-04-21 21:17 50.68984 7.65737 16381 ft 368 kts 323°
2026-04-21 21:17 50.70930 7.63132 15933 ft 366 kts 323°
2026-04-21 21:17 50.72861 7.60545 15487 ft 363 kts 323°
2026-04-21 21:18 50.74782 7.57964 15030 ft 361 kts 322°
2026-04-21 21:18 50.76542 7.55062 14285 ft 371 kts 314°
2026-04-21 21:18 50.78192 7.52007 14090 ft 360 kts 313°
2026-04-21 21:18 50.79797 7.49013 13681 ft 355 kts 313°
2026-04-21 21:19 50.81386 7.46045 13184 ft 352 kts 313°
2026-04-21 21:19 50.82942 7.43136 12712 ft 350 kts 313°
2026-04-21 21:19 50.84510 7.40206 12243 ft 348 kts 313°
2026-04-21 21:19 50.86051 7.37327 11816 ft 335 kts 313°
2026-04-21 21:20 50.87522 7.34573 11406 ft 321 kts 313°
2026-04-21 21:20 50.88933 7.31928 10991 ft 309 kts 313°
2026-04-21 21:20 50.90299 7.29367 10520 ft 301 kts 313°
2026-04-21 21:20 50.91657 7.26831 10037 ft 303 kts 314°
2026-04-21 21:21 50.93013 7.24304 9425 ft 298 kts 313°
2026-04-21 21:21 50.94345 7.21815 8815 ft 294 kts 313°
2026-04-21 21:21 50.95633 7.19393 8213 ft 289 kts 312°
2026-04-21 21:21 50.96921 7.16967 7571 ft 286 kts 312°
2026-04-21 21:22 50.98197 7.14561 6953 ft 282 kts 311°
2026-04-21 21:22 50.99230 7.12609 6579 ft 274 kts 311°
2026-04-21 21:22 51.00397 7.10362 6116 ft 265 kts 307°
2026-04-21 21:23 51.01253 7.07812 5585 ft 260 kts 295°
2026-04-21 21:23 51.01959 7.05183 5023 ft 258 kts 294°
2026-04-21 21:23 51.02646 7.02565 4462 ft 255 kts 293°
2026-04-21 21:23 51.03255 6.99979 3946 ft 252 kts 281°
2026-04-21 21:24 51.03045 6.97318 3631 ft 243 kts 238°
2026-04-21 21:24 51.01885 6.95613 3565 ft 220 kts 195°
2026-04-21 21:24 51.00472 6.95588 3497 ft 197 kts 154°
2026-04-21 21:24 50.99342 6.96643 3300 ft 183 kts 138°
2026-04-21 21:25 50.98379 6.97912 3056 ft 176 kts 134°
2026-04-21 21:25 50.97493 6.99170 2835 ft 167 kts 133°
2026-04-21 21:25 50.96654 7.00382 2619 ft 158 kts 133°
2026-04-21 21:25 50.95873 7.01514 2420 ft 145 kts 132°
2026-04-21 21:26 50.95154 7.02561 2213 ft 137 kts 131°
2026-04-21 21:26 50.94470 7.03559 2031 ft 134 kts 131°
2026-04-21 21:26 50.93786 7.04557 1847 ft 133 kts 131°
2026-04-21 21:26 50.93105 7.05549 1661 ft 133 kts 132°
2026-04-21 21:27 50.92426 7.06537 1478 ft 133 kts 132°
2026-04-21 21:27 50.91741 7.07535 1294 ft 135 kts 133°
2026-04-21 21:27 50.91045 7.08548 1087 ft 137 kts 133°
2026-04-21 21:27 50.90335 7.09579 902 ft 139 kts 135°
2026-04-21 21:28 50.89620 7.10617 702 ft 139 kts 134°
2026-04-21 21:28 50.88910 7.11658 486 ft 138 kts 134°
2026-04-21 21:28 50.87535 7.13656 240 ft 119 kts 137°
2026-04-21 21:29 50.87061 7.14332 253 ft 49 kts 139°
2026-04-21 21:29 50.86928 7.14510 259 ft 12 kts 147°
2026-04-21 21:29 50.86876 7.14470 260 ft 8 kts 266°
2026-04-21 21:29 50.86882 7.14377 259 ft 13 kts 281°
2026-04-21 21:30 50.86905 7.14165 255 ft 19 kts 285°
2026-04-21 21:30 50.86971 7.14009 250 ft 19 kts 316°
2026-04-21 21:30 50.87080 7.13851 243 ft 24 kts 317°
2026-04-21 21:30 50.87200 7.13679 238 ft 24 kts 318°
2026-04-21 21:31 50.87299 7.13536 234 ft 15 kts 318°
2026-04-21 21:31 50.87376 7.13423 232 ft 15 kts 317°
2026-04-21 21:31 50.87446 7.13320 232 ft 13 kts 317°
2026-04-21 21:31 50.87538 7.13190 233 ft 22 kts 317°
2026-04-21 21:32 50.87652 7.13025 233 ft 23 kts 316°
2026-04-21 21:32 50.87749 7.12884 232 ft 12 kts 318°
2026-04-21 21:32 50.87756 7.12873 232 ft 0 kts 316°
2026-04-21 21:33 50.87757 7.12873 232 ft 1 kts 316°
2026-04-21 21:34 50.87789 7.12805 232 ft 10 kts 285°
2026-04-21 21:34 50.87785 7.12697 232 ft 9 kts 278°
2026-04-21 21:34 50.87821 7.12625 232 ft 8 kts 328°
2026-04-21 21:34 50.87869 7.12610 232 ft 6 kts
2026-04-21 21:35 50.87907 7.12612 232 ft 5 kts 358°
2026-04-21 21:35 50.87936 7.12588 232 ft 8 kts 321°
2026-04-21 21:35 50.87995 7.12504 232 ft 12 kts 317°
2026-04-21 21:35 50.88045 7.12428 232 ft 13 kts 316°
2026-04-21 21:36 50.88100 7.12318 232 ft 10 kts 297°
2026-04-21 21:36 50.88106 7.12265 232 ft 3 kts 259°
2026-04-21 21:36 50.88087 7.12225 232 ft 7 kts 223°
2026-04-21 21:36 50.88073 7.12209 232 ft 0 kts 216°
2026-04-21 21:37 50.88066 7.12200 232 ft 1 kts 216°
2026-04-21 21:37 50.88061 7.12194 235 ft 0 kts 216°